Location: Hastringsfeld
(50.9620°N, 10.4787°E)
Time: 16:08:35
(UTC+00:00)

SL-16 R/B - Pass Details

Date: 26 September 2023
Orbit: 842 x 845 km, 71.0° (Epoch: 08 December)

Event Time Altitude Azimuth Distance (km) Brightness Sun altitude
Rises 03:16:35 0° 324° (NW) 3,414 5.2 -18.3°
Reaches altitude 10° 03:19:15 10° 315° (NW) 2,475 4.4 -17.9°
Maximum altitude 03:24:12 32° 254° (WSW) 1,423 2.8 -17.1°
Drops below altitude 10° 03:29:08 10° 193° (SSW) 2,461 4.3 -16.4°
Sets 03:31:47 0° 184° (S) 3,392 5.1 -16.0°
